[[{"header":{"parameterUnit":"m.s-1","parameterCategory":1,"la1":30.2991,"la2":30.254,"lo1":-89.0895,"lo2":-89.0444,"dy":0.0017,"dx":0.0017,"nx":28,"ny":28,"refTime":"2025-04-10T09:00:00:Z","depth":0,"parameterNumber":2,"parameterNumberName":"U-component_of_WINDS"},"data":[0,0,0,0,0,0,0,0,0,0,0,0,0,0,0,0,0,0,0,0,0,0,0,0,0,0,0,0,0,0,0,0,0,0,0,0,0,0,0,0,0,0,0,0,0,0,0,0,0,0,0,0,0,0,0,0,0,0,4.5027,4.5027,0,4.5077,4.5078,4.5078,4.5061,4.506,4.5059,4.5058,4.5108,4.511,4.5112,0,0,0,0,0,0,0,0,0,0,0,0,0,4.4917,4.4919,4.5027,4.5028,4.5028,4.5077,4.5078,4.5078,4.5061,4.506,4.5058,4.5057,4.5107,4.511,4.5113,0,0,0,0,0,0,0,0,0,0,0,0,0,4.4965,4.492,4.5027,4.5025,4.5026,4.5077,4.5078,4.5079,4.5061,4.506,4.5058,4.5056,4.5106,4.511,4.5113,4.5168,0,0,4.5124,4.5125,0,0,0,0,0,0,0,0,4.4963,4.497,4.5025,4.5026,4.5026,4.5061,4.5057,4.5109,4.5062,4.5048,4.5058,4.5056,4.5094,4.5098,4.5111,4.517,4.5173,4.5124,4.5126,4.5128,4.5129,0,0,0,0,0,0,0,4.4959,4.4967,4.5047,4.5026,4.5027,4.5023,4.5028,4.5067,4.5079,4.5049,4.5048,4.5054,4.5094,4.5108,4.5112,4.5173,4.5124,4.5127,4.5129,4.5131,4.5283,4.5285,0,0,0,0,0,0,4.4956,4.4965,4.5045,4.5048,4.499,4.5026,4.5032,4.5051,4.5079,4.5081,4.5055,4.5053,4.5102,4.5108,4.5114,4.5181,4.5128,4.5131,4.5133,4.5281,4.5283,4.5286,0,0,0,0,0,0,4.4953,4.4963,4.5043,4.5006,4.5016,4.503,4.5052,4.5053,4.5067,4.5084,4.5086,4.5067,4.5101,4.5109,4.5155,4.5183,4.5133,4.5136,4.5279,4.5282,4.5284,4.5316,0,0,0,0,0,0,4.495,4.4962,4.4983,4.5007,4.5018,4.5084,4.5054,4.5056,4.5074,4.5071,4.5096,4.5098,4.5101,4.515,4.5159,4.5187,4.5139,4.5276,4.528,4.5284,4.5313,4.532,4.5326,0,0,0,0,0,4.4946,4.4989,4.4984,4.4994,4.5044,4.5085,4.5092,4.5094,4.5076,4.5097,4.5108,4.5097,4.5179,4.5155,4.5165,4.5194,4.5275,4.5279,4.5283,4.531,4.5318,4.5325,0,0,0,0,0,0,4.4967,4.4992,4.4987,4.5038,4.506,4.5082,4.5109,4.5103,4.5129,4.5126,4.5127,4.5133,4.5181,4.5192,4.5166,4.525,4.5224,4.523,4.5241,4.5249,4.5255,4.5251,4.5142,0,0,0,0,0,4.4978,4.5009,4.5029,4.5073,4.5084,4.5095,4.5113,4.5113,4.5135,4.5144,4.5158,4.518,4.5211,4.523,4.5259,4.5315,4.532,4.534,4.5346,4.5352,4.5357,4.5389,4.5398,4.53,4.53,4.53,0,0,4.5,4.5018,4.5037,4.5078,4.5094,4.5127,4.5102,4.5137,4.5162,4.5149,4.5194,4.5206,4.523,4.5282,4.5305,4.5293,4.5386,4.5357,4.5361,4.5364,4.5394,4.5403,4.5411,4.5303,4.5302,4.5302,0,0,4.5057,4.5073,4.5112,4.513,4.5156,4.5163,4.5173,4.5197,4.5204,4.525,4.5242,4.5271,4.5323,4.5342,4.5358,4.5425,4.5417,4.5435,4.5468,4.5499,4.5507,4.5514,4.5539,4.5548,4.544,4.544,4.544,0,4.5081,4.513,4.5133,4.517,4.5188,4.518,4.5219,4.5237,4.5271,4.5284,4.527,4.5337,4.5352,4.5409,4.5426,4.5439,4.5451,4.5431,4.5506,4.5513,4.5519,4.5543,4.5552,4.5442,4.5442,4.5442,4.5442,0,4.5159,4.5193,4.5221,4.5256,4.5278,4.5316,4.5325,4.5347,4.5346,4.5356,4.5403,4.5422,4.5456,4.547,4.5468,4.5527,4.5518,4.5505,4.5479,4.553,4.5553,4.5562,4.5445,4.5444,4.5444,4.5443,0,0,4.5228,4.5266,4.5276,4.5292,4.5322,4.5349,4.5387,4.5421,4.544,4.5465,4.5497,4.5543,4.5532,4.5551,4.5552,4.5579,4.5633,4.5563,4.5563,4.5575,4.57,4.5709,4.572,4.5628,4.563,4.5631,4.5698,0,4.5288,4.5356,4.5361,4.5422,4.5455,4.5448,4.5482,4.5504,4.5514,4.5544,4.5555,4.5588,4.557,4.5581,4.5608,4.562,4.5658,4.5616,4.5659,4.566,4.5652,4.5731,4.5741,4.5803,4.5706,4.5708,4.5709,0,4.5366,4.5395,4.5459,4.5486,4.55,4.553,4.5563,4.5591,4.5617,4.5622,4.5644,4.5643,4.5683,4.5656,4.5713,4.5684,4.5702,4.5712,4.5714,4.5718,4.5687,4.5737,4.5823,4.5832,4.5723,4.5721,4.5721,0,4.5411,4.5466,4.5512,4.5526,4.5558,4.558,4.5595,4.5619,4.5639,4.5668,4.5682,4.5714,4.5732,4.5758,4.5765,4.5745,4.5822,4.5795,4.5828,4.5828,4.5844,4.5843,4.5934,4.5856,4.5856,4.5856,4.5855,0,4.5477,4.5517,4.5533,4.5561,4.5607,4.5613,4.5657,4.5671,4.5693,4.5724,4.5721,4.575,4.5758,4.579,4.5796,4.5842,4.585,4.5856,4.5857,4.5857,4.5856,4.5868,4.5864,4.5858,4.5857,4.5857,4.5857,0,4.5535,4.5547,4.5597,4.5624,4.5632,4.5664,4.5688,4.5716,4.5727,4.5767,4.5776,4.5793,4.583,4.584,4.5884,4.5889,4.5943,4.594,4.5935,4.5935,4.5967,4.5964,4.6069,4.6083,4.5996,4.5997,4.5997,0,4.5576,4.5607,4.5638,4.566,4.5675,4.5709,4.5731,4.5739,4.5762,4.5795,4.5819,4.5856,4.5885,4.5945,4.5961,4.5995,4.5993,4.6028,4.5998,4.5997,4.5994,4.5992,4.5996,4.6033,4.6034,4.6035,4.6035,0,4.5648,4.5653,4.5685,4.5719,4.5745,4.5773,4.5799,4.5816,4.5828,4.5854,4.5892,4.5916,4.5962,4.5999,4.6034,4.6049,4.6045,4.6045,4.6054,4.6053,4.6049,4.6052,4.595,4.6042,4.6041,4.6041,4.604,4.604,4.5699,4.5727,4.5754,4.579,4.5811,4.5836,4.5864,4.5879,4.5911,4.595,4.5953,4.5994,4.6021,4.6068,4.6086,4.6119,4.6109,4.6122,4.6126,4.6129,4.6132,4.6044,4.6125,4.6125,4.6125,4.6125,4.6125,0,4.5772,4.579,4.5823,4.586,4.5889,4.5883,4.5912,4.5936,4.5973,4.5999,4.6029,4.6074,4.6111,4.6131,4.6167,4.619,4.6189,4.6199,4.6197,4.6201,4.6139,4.6127,4.62,4.62,4.62,4.62,4.62,4.6199,4.5813,4.586,4.5869,4.5927,4.5945,4.5986,4.6003,4.6027,4.6048,4.6098,4.6129,4.6142,4.6166,4.6205,4.6238,4.6243,4.6257,4.6268,4.6272,4.6213,4.6205,4.6198,4.6187,4.6271,4.6271,4.6332,4.6333,4.6333]},{"header":{"parameterUnit":"m.s-1","parameterCategory":1,"la1":30.2991,"la2":30.254,"lo1":-89.0895,"lo2":-89.0444,"dy":0.0017,"dx":0.0017,"nx":28,"ny":28,"refTime":"2025-04-10T09:00:00:Z","depth":0,"parameterNumber":3,"parameterNumberName":"V-component_of_WINDS"},"data":[0,0,0,0,0,0,0,0,0,0,0,0,0,0,0,0,0,0,0,0,0,0,0,0,0,0,0,0,0,0,0,0,0,0,0,0,0,0,0,0,0,0,0,0,0,0,0,0,0,0,0,0,0,0,0,0,0,0,-4.9497,-4.9497,0,-4.9517,-4.9517,-4.9517,-4.9507,-4.9507,-4.9506,-4.9506,-4.9525,-4.9526,-4.9527,0,0,0,0,0,0,0,0,0,0,0,0,0,-4.9449,-4.945,-4.9497,-4.9497,-4.9497,-4.9517,-4.9517,-4.9517,-4.9508,-4.9507,-4.9506,-4.9506,-4.9524,-4.9525,-4.9527,0,0,0,0,0,0,0,0,0,0,0,0,0,-4.9469,-4.945,-4.9496,-4.9495,-4.9495,-4.9517,-4.9517,-4.9517,-4.9508,-4.9507,-4.9506,-4.9505,-4.9524,-4.9525,-4.9527,-4.9551,0,0,-4.9531,-4.9532,0,0,0,0,0,0,0,0,-4.9468,-4.9471,-4.9495,-4.9495,-4.9495,-4.9509,-4.9507,-4.9529,-4.9508,-4.9503,-4.9506,-4.9505,-4.952,-4.9522,-4.9527,-4.9552,-4.9553,-4.9531,-4.9532,-4.9533,-4.9533,0,0,0,0,0,0,0,-4.9467,-4.947,-4.9504,-4.9495,-4.9495,-4.9493,-4.9495,-4.9511,-4.9515,-4.9503,-4.9502,-4.9505,-4.952,-4.9526,-4.9527,-4.9553,-4.9531,-4.9533,-4.9534,-4.9534,-4.9601,-4.9602,0,0,0,0,0,0,-4.9466,-4.9469,-4.9504,-4.9505,-4.9479,-4.9494,-4.9496,-4.9505,-4.9515,-4.9516,-4.9506,-4.9505,-4.9524,-4.9526,-4.9528,-4.9558,-4.9533,-4.9534,-4.9535,-4.96,-4.9601,-4.9602,0,0,0,0,0,0,-4.9465,-4.9469,-4.9503,-4.9487,-4.9491,-4.9496,-4.9506,-4.9506,-4.9512,-4.9517,-4.9518,-4.9511,-4.9523,-4.9526,-4.9546,-4.9558,-4.9535,-4.9536,-4.9599,-4.96,-4.9602,-4.9618,0,0,0,0,0,0,-4.9463,-4.9469,-4.9478,-4.9487,-4.9492,-4.9521,-4.9506,-4.9507,-4.9515,-4.9513,-4.9522,-4.9523,-4.9523,-4.9544,-4.9547,-4.956,-4.9537,-4.9598,-4.96,-4.9601,-4.9616,-4.9619,-4.9622,0,0,0,0,0,-4.9462,-4.9481,-4.9478,-4.9483,-4.9504,-4.9521,-4.9524,-4.9524,-4.9516,-4.9525,-4.9529,-4.9523,-4.9557,-4.9546,-4.955,-4.9563,-4.9597,-4.9599,-4.9601,-4.9615,-4.9619,-4.9622,0,0,0,0,0,0,-4.9471,-4.9482,-4.9479,-4.9502,-4.9511,-4.952,-4.9531,-4.9528,-4.9539,-4.9537,-4.9536,-4.9538,-4.9559,-4.9563,-4.9551,-4.9588,-4.9576,-4.9578,-4.9585,-4.9589,-4.9592,-4.959,-4.9539,0,0,0,0,0,-4.9476,-4.949,-4.9499,-4.9518,-4.9523,-4.9527,-4.9534,-4.9534,-4.9543,-4.9546,-4.9551,-4.956,-4.9573,-4.9581,-4.9593,-4.9617,-4.9619,-4.9628,-4.9631,-4.9634,-4.9636,-4.965,-4.9655,-4.9609,-4.9609,-4.9609,0,0,-4.9486,-4.9494,-4.9502,-4.952,-4.9527,-4.9541,-4.953,-4.9545,-4.9556,-4.9548,-4.9568,-4.9572,-4.9582,-4.9604,-4.9614,-4.9608,-4.965,-4.9637,-4.9639,-4.9639,-4.9653,-4.9657,-4.9661,-4.961,-4.961,-4.961,0,0,-4.9511,-4.9518,-4.9536,-4.9544,-4.9555,-4.9558,-4.9562,-4.9572,-4.9575,-4.9595,-4.959,-4.9603,-4.9625,-4.9632,-4.9639,-4.967,-4.9665,-4.9674,-4.969,-4.9704,-4.9707,-4.971,-4.9722,-4.9726,-4.9676,-4.9676,-4.9676,0,-4.9522,-4.9544,-4.9545,-4.9561,-4.957,-4.9565,-4.9583,-4.9591,-4.9605,-4.9611,-4.9604,-4.9633,-4.9639,-4.9663,-4.9671,-4.9677,-4.9682,-4.9672,-4.9707,-4.971,-4.9713,-4.9724,-4.9728,-4.9677,-4.9677,-4.9677,-4.9677,0,-4.9556,-4.9572,-4.9585,-4.96,-4.961,-4.9627,-4.9631,-4.9641,-4.964,-4.9644,-4.9665,-4.9672,-4.9686,-4.9692,-4.9691,-4.9717,-4.9713,-4.9707,-4.9694,-4.9718,-4.9728,-4.9732,-4.9679,-4.9679,-4.9678,-4.9678,0,0,-4.9586,-4.9604,-4.9609,-4.9616,-4.963,-4.9642,-4.9659,-4.9674,-4.9683,-4.9693,-4.9708,-4.9728,-4.9722,-4.973,-4.973,-4.9742,-4.9767,-4.9734,-4.9734,-4.974,-4.9797,-4.9801,-4.9806,-4.9764,-4.9765,-4.9766,-4.9796,0,-4.9612,-4.9643,-4.9646,-4.9674,-4.9689,-4.9686,-4.9702,-4.9711,-4.9716,-4.9729,-4.9734,-4.9748,-4.9739,-4.9744,-4.9756,-4.9761,-4.9778,-4.9759,-4.9777,-4.9778,-4.9774,-4.9811,-4.9816,-4.9844,-4.98,-4.9801,-4.9801,0,-4.9647,-4.966,-4.969,-4.9703,-4.9709,-4.9723,-4.9738,-4.975,-4.9762,-4.9764,-4.9774,-4.9773,-4.9791,-4.9779,-4.9804,-4.9791,-4.9799,-4.9802,-4.9804,-4.9805,-4.979,-4.9813,-4.9853,-4.9857,-4.9807,-4.9807,-4.9806,0,-4.9666,-4.9691,-4.9713,-4.9719,-4.9735,-4.9745,-4.9752,-4.9763,-4.9772,-4.9785,-4.9791,-4.9806,-4.9814,-4.9825,-4.9828,-4.9818,-4.9853,-4.984,-4.9855,-4.9855,-4.9862,-4.9861,-4.9903,-4.9868,-4.9868,-4.9867,-4.9867,0,-4.9694,-4.9713,-4.9722,-4.9735,-4.9755,-4.9759,-4.9779,-4.9786,-4.9796,-4.981,-4.9809,-4.9822,-4.9825,-4.9839,-4.9842,-4.9862,-4.9866,-4.9868,-4.9868,-4.9868,-4.9868,-4.9872,-4.987,-4.9869,-4.9868,-4.9868,-4.9868,0,-4.9718,-4.9725,-4.9748,-4.9762,-4.9766,-4.9781,-4.9793,-4.9806,-4.9811,-4.9829,-4.9833,-4.9841,-4.9858,-4.9862,-4.9882,-4.9884,-4.9908,-4.9906,-4.9904,-4.9904,-4.9918,-4.9917,-4.9964,-4.9971,-4.9932,-4.9932,-4.9932,0,-4.9736,-4.975,-4.9767,-4.9777,-4.9784,-4.98,-4.9811,-4.9815,-4.9826,-4.9842,-4.9852,-4.9869,-4.9883,-4.9909,-4.9917,-4.9932,-4.9931,-4.9946,-4.9933,-4.9932,-4.9931,-4.993,-4.9931,-4.9948,-4.9949,-4.9949,-4.9949,0,-4.9766,-4.977,-4.9785,-4.9802,-4.9815,-4.9828,-4.9841,-4.9849,-4.9855,-4.9867,-4.9885,-4.9896,-4.9917,-4.9934,-4.995,-4.9956,-4.9954,-4.9954,-4.9958,-4.9957,-4.9955,-4.9957,-4.9911,-4.9952,-4.9952,-4.9952,-4.9952,-4.9952,-4.9788,-4.9801,-4.9815,-4.9832,-4.9843,-4.9856,-4.9869,-4.9877,-4.9892,-4.991,-4.9912,-4.9931,-4.9944,-4.9965,-4.9973,-4.9988,-4.9983,-4.9989,-4.999,-4.9992,-4.9993,-4.9954,-4.9991,-4.9991,-4.9991,-4.999,-4.999,0,-4.9818,-4.9828,-4.9844,-4.9863,-4.9877,-4.9876,-4.989,-4.9902,-4.9919,-4.9931,-4.9946,-4.9967,-4.9983,-4.9993,-5.0009,-5.002,-5.0019,-5.0024,-5.0023,-5.0024,-4.9996,-4.9991,-5.0024,-5.0024,-5.0024,-5.0024,-5.0024,-5.0024,-4.9836,-4.9858,-4.9864,-4.9892,-4.9901,-4.9921,-4.993,-4.9941,-4.9951,-4.9975,-4.999,-4.9996,-5.0008,-5.0026,-5.0041,-5.0043,-5.0049,-5.0055,-5.0056,-5.003,-5.0026,-5.0023,-5.0018,-5.0056,-5.0056,-5.0083,-5.0083,-5.0084]}]]